SCP
0 0 0 0 0 0 0 0 0 0 0 0 0 0 0 0 0 0 0 0 0 0 0 0 0 0 1 1 1 1 1 1 1 1 1 1 1 1 1 1 1 1 1 0
0 0 0 0 0 0 0 0 0 0 0 0 0 0 0 0 0 0 0 0 0 0 0 1 0 0 1 1 1 1 1 1 1 1 1 1 1 1 1 1 1 1 1 0
0 0 0 0 0 0 0 0 0 0 0 0 0 0 0 0 0 0 0 0 0 0 1 1 1 1 1 1 1 1 1 1 1 1 1 1 1 1 1 1 1 1 1 0
0 0 0 0 0 0 0 0 0 0 0 0 0 0 0 0 0 0 0 0 0 0 1 1 1 1 1 1 1 1 1 1 1 1 1 1 1 1 1 1 1 1 1 0
0 0 0 0 0 0 0 0 0 0 0 0 0 0 0 0 0 0 0 0 0 0 0 1 1 1 1 1 1 1 1 2 1 1 1 1 1 1 1 1 1 1 1 0
0 0 0 0 0 0 0 0 0 0 0 0 0 0 0 0 0 0 0 0 0 0 0 1 1 1 1 1 1 1 2 2 1 1 1 1 1 1 1 1 1 1 1 0
0 0 0 0 0 0 0 0 0 0 0 0 0 0 0 0 0 0 0 0 0 0 0 1 1 1 1 1 1 2 2 2 2 1 1 1 1 1 1 1 1 1 1 0
0 0 0 0 0 0 0 0 0 0 0 0 0 0 0 0 0 0 0 0 0 0 0 1 1 1 1 1 2 2 2 2 2 2 2 2 2 1 1 1 1 1 1 1
0 0 0 0 0 0 0 0 0 0 0 0 0 0 0 0 0 0 0 0 0 0 0 1 1 1 1 1 2 2 2 2 2 2 2 2 2 1 1 1 1 1 1 1
0 0 0 0 0 0 0 0 0 0 0 0 0 0 0 0 0 0 0 0 0 0 0 1 1 1 1 1 1 2 2 2 2 2 2 1 1 1 1 1 1 1 1 1
0 0 0 0 0 0 0 0 0 0 0 0 0 0 0 0 0 0 0 0 0 0 1 1 1 1 1 1 1 1 1 2 2 2 1 1 1 1 1 1 1 1 1 1
0 0 0 0 0 0 0 0 0 0 0 0 0 0 0 0 0 0 0 0 0 1 1 1 1 1 1 1 1 1 1 1 1 1 1 1 1 1 1 1 2 1 1 1
0 0 0 0 0 0 0 0 0 0 0 0 0 0 0 0 0 0 0 0 1 1 1 1 1 1 1 1 1 1 1 1 1 1 1 1 1 2 2 2 2 2 2 1
0 0 0 0 0 0 0 0 0 0 0 0 0 0 0 0 0 0 0 1 1 1 1 1 1 1 1 1 2 2 1 1 1 1 1 2 2 2 2 2 2 2 2 2
0 0 0 0 0 0 0 0 0 0 0 0 0 0 0 0 1 1 1 1 1 1 1 1 1 2 2 2 2 2 2 2 2 2 2 2 2 2 2 2 2 2 2 2
0 0 0 0 0 0 0 0 0 0 0 0 0 0 0 0 1 1 1 1 1 1 1 2 2 2 2 2 2 2 2 2 2 2 2 2 2 2 2 2 2 2 2 2
0 0 0 0 0 0 0 0 0 0 0 0 0 0 0 1 1 1 1 1 1 1 2 2 2 2 2 2 2 2 2 2 2 2 2 2 2 2 2 1 2 2 2 2
0 0 0 0 0 0 0 0 0 0 0 0 0 0 1 1 1 1 1 1 1 1 2 2 2 2 2 2 2 2 2 2 2 2 2 2 2 2 2 1 2 2 2 2
0 0 0 0 0 0 0 0 0 0 0 0 0 0 1 1 1 1 1 1 1 2 2 2 2 2 2 2 2 2 2 2 2 2 2 2 2 2 2 2 2 2 2 2
0 0 0 0 0 0 0 0 0 0 0 0 1 1 1 1 1 1 1 1 2 2 2 2 1 2 2 2 2 2 2 2 2 2 2 2 2 2 2 2 2 2 2 2
0 0 0 0 0 0 0 0 0 0 1 1 1 1 1 1 1 1 1 2 2 2 2 2 2 2 2 3 3 2 2 2 2 2 2 2 2 2 2 2 2 2 2 2
0 0 0 0 0 0 0 0 0 1 1 1 1 1 1 1 1 1 2 2 2 2 1 1 2 2 3 3 3 2 2 2 2 2 2 2 2 2 2 2 2 2 2 2
0 0 0 0 0 0 1 1 1 1 1 1 1 1 1 1 1 1 2 2 2 1 1 1 2 2 2 3 3 2 2 2 2 2 2 2 2 2 2 2 2 2 2 2
0 0 0 1 1 1 1 1 1 1 0 0 0 1 1 1 1 1 2 2 2 1 1 1 2 2 2 3 3 3 2 2 2 2 2 2 2 2 2 2 2 2 2 2
0 0 1 1 1 1 1 1 0 0 0 0 0 0 0 1 1 1 2 2 2 1 1 1 2 2 2 3 3 3 3 2 2 2 2 2 2 2 2 2 2 1 1 1
0 0 1 1 1 1 1 0 0 0 0 0 0 0 0 0 1 1 2 2 2 2 1 1 2 2 2 3 3 3 3 3 2 2 2 2 2 2 2 2 2 1 1 1
Wind_Speed
13 12 11 10 8 6 7 5 2 2 5 4 5 9 11 11 10 11 11 11 11 11 11 11 10 10 10 9 8 6 5 4 3 2 1 1 1 1 1 2 3 3 2 2
12 14 13 9 7 7 7 5 3 3 3 3 4 6 9 10 9 9 10 10 11 12 12 11 10 10 10 9 8 7 5 5 4 3 2 1 1 1 2 2 2 2 2 2
15 13 9 9 8 8 8 6 4 4 4 6 4 4 8 8 7 7 9 10 11 12 14 13 11 10 10 10 9 7 6 5 5 4 2 2 1 1 1 2 2 2 2 1
16 14 11 10 10 9 8 5 5 6 6 6 5 3 6 7 8 10 10 11 12 13 14 14 12 10 10 10 10 7 7 5 5 4 3 3 3 2 2 2 2 2 2 2
15 14 13 11 11 10 8 5 6 8 8 8 5 4 5 9 9 10 10 11 12 12 13 14 13 11 10 10 10 8 7 6 5 4 3 2 2 2 2 2 3 2 2 2
16 15 13 12 12 10 7 7 7 10 9 10 6 3 4 6 8 10 11 11 11 11 11 12 12 11 9 10 9 10 8 6 6 5 4 3 2 1 1 2 3 3 2 2
18 16 14 12 12 11 11 7 5 7 8 6 4 4 5 6 8 10 11 10 11 11 11 11 12 11 9 9 8 9 9 7 6 6 4 3 3 3 2 2 2 2 2 2
16 15 15 13 13 11 12 11 8 7 7 3 4 3 6 9 8 10 11 10 11 11 11 11 12 11 10 10 8 8 8 7 7 6 4 3 3 2 2 2 1 1 1 2
12 13 15 15 14 14 13 12 12 10 10 7 4 2 6 10 9 9 10 10 10 11 11 11 11 11 10 10 9 9 9 7 6 6 5 4 3 2 1 2 2 1 1 1
13 12 12 13 12 14 14 12 9 9 7 7 6 5 4 8 9 9 10 10 10 10 10 10 10 10 9 10 9 8 8 7 6 5 5 5 5 3 2 2 2 1 1 0
14 12 13 13 15 15 14 15 11 8 7 7 5 2 4 8 7 8 9 10 10 10 10 10 9 9 8 9 9 8 8 7 6 6 5 3 5 4 3 2 2 2 1 1
11 11 12 13 12 13 14 14 13 9 7 7 7 3 2 6 8 7 8 9 9 9 9 10 8 8 7 8 8 7 7 7 6 5 5 4 3 4 4 3 3 2 2 2
7 8 11 13 12 13 13 14 14 12 9 8 8 4 4 4 6 6 8 9 8 8 8 9 8 7 6 6 6 6 6 6 6 6 6 5 3 3 3 3 3 3 2 3
6 9 12 14 11 11 14 15 14 13 9 9 9 6 4 5 4 5 5 8 8 7 7 8 7 6 5 4 5 5 5 5 5 5 5 4 4 3 2 2 3 3 3 3
8 11 14 16 15 14 13 13 14 14 13 11 9 7 5 3 6 5 5 6 7 8 7 8 7 6 5 5 4 3 3 3 3 4 4 4 3 3 3 3 3 3 3 3
8 9 13 16 16 15 14 15 15 15 13 11 10 8 5 4 4 3 4 4 5 6 7 7 6 6 5 5 4 3 3 3 4 4 3 3 4 3 3 3 3 3 3 2
9 8 11 13 14 15 16 13 14 13 12 11 10 6 3 4 5 5 3 3 5 5 5 5 6 6 5 5 4 3 3 2 3 3 3 3 3 4 4 4 3 4 4 3
8 7 8 11 13 18 12 9 11 11 9 7 5 2 2 2 3 4 4 3 2 3 5 5 5 5 5 4 4 3 3 3 3 3 3 3 3 3 3 2 2 2 2 2
9 8 9 10 14 14 12 9 10 10 8 4 3 4 1 0 2 4 3 3 2 3 3 4 5 5 5 4 4 3 3 4 4 3 3 3 3 3 3 3 3 3 3 3
11 8 10 11 14 13 8 5 7 8 6 3 3 2 1 2 3 2 3 4 4 3 2 2 4 5 5 4 4 3 3 3 3 3 2 2 3 3 3 3 3 2 3 3
12 11 13 14 14 10 5 4 6 7 1 4 3 2 2 3 3 4 4 4 4 3 3 2 2 3 3 4 4 3 3 2 2 1 2 2 3 3 3 3 2 3 3 3
10 10 11 11 13 9 4 3 2 3 4 5 5 4 4 4 3 4 5 4 4 3 2 1 1 2 2 3 3 3 2 2 2 2 2 2 3 4 4 3 3 3 4 4
8 7 5 5 4 2 4 4 5 4 4 4 4 4 4 2 3 3 3 3 3 2 2 1 0 1 2 3 3 3 2 1 2 2 3 3 4 3 3 4 4 4 4 4
5 4 4 3 3 1 3 3 4 4 4 4 4 5 5 3 2 2 1 1 1 1 1 1 1 1 1 2 2 2 2 1 2 3 3 3 4 4 4 3 4 4 4 4
6 4 4 5 3 2 2 2 2 3 4 5 4 4 4 4 2 1 1 1 0 1 1 1 1 1 1 0 1 1 2 2 2 3 3 4 5 5 4 4 3 3 3 3
7 6 6 4 3 2 2 3 4 4 4 5 6 6 4 4 4 2 1 1 1 1 0 0 1 2 1 1 1 1 2 2 2 3 3 4 4 4 4 4 4 1 2 2
Wind_Direction
229 233 237 238 226 236 249 248 204 168 147 174 149 149 156 164 166 160 159 158 155 152 151 148 148 144 138 136 137 137 139 139 142 135 151 150 149 149 121 123 127 137 148 163
232 235 239 247 242 240 243 241 229 202 172 196 166 165 161 166 172 159 159 159 154 158 154 153 156 153 148 147 146 148 155 154 157 153 168 176 161 160 147 120 122 133 148 177
238 238 230 230 240 244 247 248 253 250 222 228 195 178 162 165 164 164 162 159 161 166 162 162 163 163 161 155 158 163 163 161 169 165 164 171 145 189 130 136 150 157 172 172
245 247 239 226 229 240 245 240 241 252 252 253 202 201 172 168 180 176 172 167 170 167 164 164 165 169 167 162 161 155 156 159 165 170 182 187 177 186 163 167 158 166 178 177
241 242 239 232 232 234 250 264 260 265 259 260 216 200 192 172 189 179 172 172 169 167 165 164 167 173 170 164 159 155 155 161 165 177 190 198 188 194 169 166 150 172 182 194
245 243 235 232 236 230 243 249 256 261 258 253 239 220 173 175 177 172 170 170 164 163 164 162 162 161 167 166 163 159 157 162 168 180 191 191 200 200 181 180 162 190 181 178
239 240 235 225 233 222 230 237 246 251 245 242 223 218 157 171 170 158 158 160 158 158 160 160 158 158 164 164 160 154 154 164 172 181 190 188 195 198 196 207 183 204 179 161
230 229 228 223 227 229 224 229 238 258 267 272 225 201 146 156 148 139 143 152 153 157 160 159 161 162 166 164 157 152 154 164 171 177 179 175 182 200 191 197 203 193 217 153
240 234 222 218 224 228 230 232 239 252 262 263 237 178 148 146 137 140 142 148 156 161 160 159 161 163 168 166 162 160 154 162 171 179 175 173 183 195 201 165 211 209 220 177
252 258 240 209 218 229 242 243 241 246 262 271 252 220 176 147 151 154 151 157 157 159 158 160 162 162 164 162 160 157 156 160 166 175 182 178 181 186 194 178 185 205 167 141
248 255 249 220 212 223 226 240 251 264 263 262 270 260 161 160 161 162 156 151 154 161 163 161 159 158 160 162 158 159 160 163 169 174 177 179 173 181 183 188 181 183 187 178
239 251 254 240 221 228 236 237 239 244 257 269 269 257 136 153 162 167 153 148 152 156 155 154 152 154 159 161 161 164 166 170 171 174 171 179 179 174 178 186 184 185 186 180
247 249 251 239 226 219 235 242 243 246 250 252 258 231 163 144 152 150 148 149 149 149 147 145 139 145 157 160 154 161 166 167 174 175 174 175 179 178 184 179 172 181 186 180
257 245 252 248 240 233 227 239 243 243 244 243 239 225 201 164 145 144 143 144 150 148 143 140 134 138 148 145 145 154 163 167 169 159 168 171 174 180 182 179 179 187 187 178
250 247 253 260 264 260 246 240 244 246 248 249 247 229 214 183 149 144 148 153 155 152 149 141 140 143 148 141 138 151 156 150 152 149 160 167 174 173 179 182 186 189 184 183
245 258 258 256 255 255 253 245 242 242 246 243 241 243 180 144 122 136 145 151 150 153 155 149 147 141 142 145 151 159 161 158 155 165 174 171 175 176 181 184 184 185 182 183
239 249 258 254 251 253 246 245 254 247 246 249 243 240 204 163 146 141 143 162 156 158 155 150 152 149 146 149 150 159 157 150 166 175 181 182 183 181 191 193 185 190 187 187
246 254 251 256 253 247 251 250 254 256 249 250 255 263 287 162 138 130 139 130 142 148 154 153 151 148 150 149 151 166 169 175 181 189 193 184 186 188 186 186 191 195 190 192
236 238 245 250 248 245 248 249 252 254 259 275 261 263 271 309 146 139 108 98 104 119 123 149 159 158 150 154 161 181 189 188 186 195 201 191 193 194 196 200 194 196 201 206
222 228 240 245 249 246 248 260 272 256 239 335 313 307 311 283 245 123 84 92 97 85 101 124 155 155 150 156 163 186 200 196 200 203 205 203 197 194 203 205 200 202 209 220
215 215 230 244 248 249 276 293 273 247 263 5 339 347 6 17 11 47 53 66 74 68 66 74 106 127 145 154 161 184 198 206 215 225 217 211 199 198 200 191 194 203 215 221
227 222 224 239 244 247 339 299 324 24 38 31 20 19 28 38 35 66 68 62 65 62 60 64 93 121 139 146 161 183 200 200 209 226 225 224 214 217 204 192 201 207 214 214
240 243 244 246 241 18 14 35 53 46 38 30 17 13 16 23 10 51 66 63 60 54 32 13 34 164 155 158 175 201 204 197 215 232 230 224 221 225 200 196 208 213 213 221
253 258 253 261 243 325 8 24 32 34 20 4 359 357 358 344 352 43 57 64 75 68 50 8 313 247 184 174 190 194 180 182 216 234 232 224 219 220 210 205 215 222 224 225
286 274 248 245 246 250 299 358 2 360 351 343 338 345 344 335 340 16 18 4 54 72 79 45 317 294 310 105 189 203 182 186 216 234 233 229 226 223 221 221 234 239 238 235
287 286 268 254 289 291 315 333 337 335 332 336 335 331 327 327 316 316 331 348 335 342 81 184 254 271 288 297 261 247 220 203 214 230 233 237 235 223 217 220 224 244 235 198